Temperature
5 5 5 6 5 5 6 8 9 10 10 11 10 9 8 7 7 6 6 5 5 5 5 5 6 6 6 6 6 5 5 5 5 4 4 4 4 4 3 3 3 3 3 3
4 4 5 5 6 6 6 7 8 8 9 9 9 8 7 7 6 6 5 5 5 5 5 5 5 5 5 5 5 5 5 4 4 4 4 4 4 3 3 3 3 3 2 2
5 4 4 5 6 6 6 7 7 8 9 8 7 7 7 6 6 5 5 5 4 5 5 5 5 5 5 5 5 5 4 4 4 4 4 3 3 3 3 3 2 2 2 2
4 4 5 7 6 6 6 6 6 7 7 7 6 6 5 5 5 5 4 4 4 4 5 5 5 5 5 4 4 4 4 4 3 3 3 3 3 2 2 2 2 2 2 2
4 5 6 6 5 4 5 5 5 6 6 5 4 5 5 4 4 4 4 4 4 4 4 4 4 4 4 4 4 3 3 3 3 3 3 3 2 2 2 2 2 1 1 1
3 5 5 6 4 3 5 5 5 5 5 4 4 6 6 4 3 3 3 4 4 4 4 4 4 3 3 3 3 3 3 3 3 2 2 2 2 2 2 1 1 1 1 1
3 4 6 5 3 4 5 5 4 4 4 4 4 4 3 2 2 3 3 3 3 3 3 3 3 3 3 2 2 2 2 2 2 2 2 2 1 1 1 1 1 1 1 1
3 4 5 3 3 4 4 3 3 3 3 2 2 2 2 2 2 2 2 2 2 2 2 2 2 2 2 2 2 2 2 2 2 2 1 1 1 1 1 1 0 0 0 0
3 4 3 2 2 2 2 2 2 2 2 1 1 1 1 1 1 1 1 1 1 2 2 2 2 1 1 1 1 1 1 1 1 1 1 1 1 0 0 0 -0 -1 -1 -1
2 3 2 1 1 1 1 1 1 1 1 1 0 0 0 0 0 0 1 1 1 1 1 1 1 1 1 1 1 1 1 1 1 0 0 0 0 -0 -0 -1 -1 -1 -2 -2
2 2 2 1 1 1 1 1 1 1 0 0 -0 -0 -0 -1 -0 -0 0 0 0 0 0 0 0 0 0 0 0 0 0 -0 -0 -0 -1 -1 -1 -1 -1 -1 -2 -2 -2 -2
3 2 2 2 0 0 0 0 0 -0 -1 -1 -1 -1 -1 -1 -1 -1 -0 -0 -0 -0 -0 -0 -0 -0 -0 -0 -0 -0 -1 -1 -1 -1 -1 -1 -1 -1 -1 -2 -2 -2 -2 -2
0 0 0 -0 -0 -0 -0 -1 -1 -1 -1 -1 -2 -2 -1 -1 -1 -1 -1 -1 -1 -1 -1 -1 -1 -1 -1 -1 -1 -1 -1 -1 -1 -2 -2 -2 -2 -2 -2 -2 -2 -2 -2 -2
-1 -1 -1 -1 -1 -1 -1 -1 -1 -2 -2 -2 -2 -2 -2 -2 -2 -1 -1 -1 -2 -1 -1 -1 -1 -1 -1 -1 -1 -1 -1 -2 -2 -2 -2 -2 -3 -3 -3 -3 -2 -2 -2 -2
-2 -2 -2 -2 -2 -2 -2 -2 -2 -2 -3 -3 -2 -2 -2 -2 -2 -2 -2 -2 -2 -2 -2 -2 -2 -2 -2 -2 -2 -2 -2 -2 -3 -3 -3 -3 -3 -3 -3 -3 -3 -3 -3 -2
-3 -3 -3 -3 -3 -3 -3 -3 -3 -3 -3 -3 -3 -3 -3 -2 -2 -2 -3 -2 -2 -2 -2 -2 -2 -2 -2 -2 -2 -2 -3 -3 -3 -3 -3 -3 -3 -3 -3 -4 -4 -4 -4 -3
-4 -4 -4 -4 -4 -4 -4 -4 -4 -4 -4 -4 -3 -3 -3 -3 -3 -3 -3 -3 -3 -3 -3 -3 -3 -3 -3 -3 -3 -3 -3 -3 -3 -3 -3 -3 -4 -4 -4 -4 -4 -4 -4 -4
-4 -4 -4 -5 -5 -4 -5 -5 -4 -4 -4 -4 -4 -4 -4 -4 -4 -4 -4 -3 -3 -3 -3 -4 -4 -4 -3 -3 -3 -4 -4 -4 -4 -4 -4 -4 -4 -4 -4 -4 -4 -4 -4 -4
-5 -5 -5 -5 -5 -5 -5 -5 -5 -5 -4 -4 -4 -4 -4 -4 -4 -4 -4 -4 -4 -4 -4 -4 -4 -4 -4 -4 -4 -4 -4 -4 -4 -4 -4 -4 -4 -4 -5 -4 -5 -5 -4 -4
-6 -5 -5 -5 -5 -5 -5 -5 -5 -5 -5 -5 -5 -5 -5 -5 -5 -5 -5 -4 -4 -5 -5 -4 -4 -4 -4 -4 -4 -4 -4 -4 -4 -4 -5 -5 -5 -5 -5 -5 -5 -5 -5 -5
-6 -6 -6 -6 -6 -6 -6 -6 -5 -5 -5 -5 -5 -5 -5 -5 -5 -5 -5 -5 -5 -5 -5 -5 -5 -5 -5 -5 -5 -5 -5 -5 -5 -5 -5 -5 -5 -5 -5 -5 -5 -5 -5 -5
-7 -7 -6 -6 -6 -6 -6 -6 -6 -6 -6 -6 -6 -6 -6 -6 -6 -6 -6 -6 -5 -5 -5 -5 -5 -5 -5 -5 -5 -5 -5 -5 -5 -5 -5 -6 -6 -6 -5 -5 -5 -5 -6 -6
-7 -7 -7 -7 -7 -7 -7 -7 -6 -6 -6 -6 -6 -6 -6 -6 -6 -6 -6 -6 -6 -6 -6 -6 -6 -5 -6 -6 -6 -6 -6 -6 -6 -6 -6 -6 -6 -6 -6 -6 -6 -6 -6 -6
-7 -7 -7 -7 -7 -7 -7 -7 -7 -7 -7 -7 -7 -7 -7 -6 -6 -6 -6 -6 -6 -6 -6 -6 -6 -6 -6 -6 -6 -6 -6 -6 -6 -6 -6 -6 -6 -6 -6 -6 -6 -6 -6 -6
-8 -8 -7 -7 -7 -7 -7 -7 -7 -7 -7 -7 -7 -7 -7 -7 -7 -7 -7 -6 -6 -6 -6 -6 -6 -6 -6 -6 -6 -6 -6 -6 -6 -6 -6 -6 -6 -6 -6 -6 -6 -6 -6 -6
-8 -8 -8 -8 -8 -8 -8 -8 -8 -8 -8 -8 -8 -7 -7 -7 -7 -7 -7 -7 -7 -7 -7 -6 -6 -6 -6 -6 -6 -6 -6 -6 -6 -7 -7 -7 -7 -7 -7 -7 -7 -7 -6 -6
-9 -8 -8 -8 -8 -8 -8 -8 -8 -8 -8 -8 -8 -8 -8 -8 -8 -8 -7 -7 -7 -7 -7 -7 -7 -7 -7 -7 -7 -7 -7 -7 -7 -7 -7 -7 -7 -7 -7 -7 -7 -6 -6 -6
Wind_Speed
5 4 5 8 11 14 14 13 11 11 12 11 7 5 4 3 1 1 1 1 2 2 3 3 3 3 3 3 3 3 4 4 5 5 5 5 5 6 6 6 6 7 7 8
5 5 6 9 12 16 16 16 15 14 14 8 7 5 4 4 3 2 2 2 3 3 3 3 3 3 3 3 3 3 3 4 4 4 4 4 5 5 6 6 6 7 7 8
5 4 4 9 12 15 12 13 14 15 11 5 5 6 6 5 4 5 4 4 4 4 4 3 3 2 3 2 2 2 3 3 3 4 4 4 5 5 6 6 7 7 7 8
2 4 8 3 2 9 11 10 11 9 7 6 6 6 6 5 5 5 5 4 4 4 4 3 2 2 1 1 2 2 2 3 3 3 4 4 5 5 6 6 6 7 7 8
4 5 6 4 2 4 7 7 7 8 7 5 3 3 3 1 3 4 5 4 4 4 3 2 2 1 0 1 1 2 3 3 3 3 4 5 5 6 6 6 7 7 7 8
4 5 6 1 0 2 4 5 3 5 6 4 2 4 3 3 4 4 4 4 3 3 2 2 1 0 0 1 2 2 3 3 3 4 4 5 6 6 6 6 7 7 8 8
6 6 5 1 0 3 5 2 1 3 3 3 4 4 4 4 4 4 3 3 3 2 1 1 1 0 1 1 2 3 3 3 3 4 4 5 5 5 5 5 6 7 8 8
4 5 4 2 3 3 2 3 2 3 3 2 2 3 3 3 3 4 3 3 3 2 2 2 1 0 1 2 3 3 2 3 3 4 3 3 4 5 5 5 6 6 7 8
5 4 2 3 2 2 2 3 4 3 3 2 2 2 2 2 3 3 3 4 3 3 3 3 2 1 2 3 3 2 2 3 3 4 3 3 3 4 4 4 5 5 6 7
3 4 4 3 3 3 4 4 4 3 3 2 2 2 2 2 3 3 4 4 3 3 3 3 3 3 2 3 3 2 3 3 3 3 4 4 3 3 3 4 5 5 6 6
5 5 4 3 3 4 4 3 3 3 2 1 1 1 1 2 2 3 3 3 3 3 3 4 4 4 4 3 3 3 3 3 3 3 3 4 3 3 4 4 5 6 6 6
6 5 4 5 5 4 4 3 2 1 2 1 0 1 2 2 2 2 2 3 3 3 3 4 4 4 4 4 3 3 3 3 3 3 3 3 4 4 4 5 7 8 9 9
5 5 5 5 4 4 3 2 1 1 0 1 1 1 1 2 2 2 3 3 3 3 3 4 4 4 4 4 3 3 3 3 3 3 3 3 4 4 5 6 6 7 9 10
3 3 3 4 3 3 2 1 1 2 2 1 1 2 2 2 2 3 3 3 3 3 3 4 4 4 5 4 3 3 3 3 3 3 3 3 4 4 4 5 7 6 7 9
3 3 3 3 2 2 1 1 2 2 2 2 2 2 2 2 3 3 4 3 3 3 4 4 4 5 5 4 3 3 3 2 3 3 3 3 4 4 4 5 5 6 6 7
3 2 1 1 1 1 1 2 2 1 2 2 2 3 3 2 2 3 3 3 3 3 4 4 5 5 5 4 4 3 3 3 4 3 3 3 3 4 4 4 5 5 5 6
1 2 2 2 1 1 1 1 1 1 1 1 2 2 2 2 3 4 4 4 3 3 4 4 5 5 5 4 4 3 3 3 4 3 3 3 3 4 4 4 4 5 5 6
2 3 3 2 2 1 1 1 1 1 1 1 1 1 2 2 3 3 4 4 4 4 5 5 5 5 5 5 4 3 3 3 3 3 3 3 4 4 4 4 5 5 5 6
3 2 2 1 0 1 1 1 1 0 1 1 1 1 2 2 2 3 3 3 4 5 6 6 7 6 5 5 5 3 3 3 3 3 3 4 4 4 4 4 4 5 5 5
4 3 3 3 3 2 2 1 1 1 1 1 1 2 2 3 3 3 3 3 3 3 5 6 6 5 5 5 5 3 3 3 3 3 3 3 4 4 4 4 5 5 5 5
4 4 4 4 3 3 2 2 2 1 1 1 2 1 2 2 3 3 2 3 4 5 5 6 5 5 5 5 5 3 3 3 3 3 3 4 4 4 4 5 5 4 4 5
3 3 3 3 3 3 3 2 2 2 2 2 2 2 2 2 3 3 2 2 4 7 6 4 4 6 6 7 4 4 3 3 3 3 3 4 4 4 4 5 5 5 5 5
3 2 2 2 2 2 3 3 3 2 2 2 2 2 2 2 2 2 3 3 4 6 5 4 6 8 8 5 4 3 3 3 3 4 4 4 4 4 4 5 5 5 5 5
2 2 2 2 2 2 3 3 3 2 2 2 2 2 2 2 2 2 3 5 7 7 5 6 8 8 8 4 4 3 3 4 4 4 4 4 4 4 5 5 5 5 5 5
2 2 2 2 2 2 2 2 2 3 3 2 3 3 3 2 2 3 4 4 6 6 5 6 8 8 5 4 3 3 3 4 4 4 4 4 5 5 5 5 5 5 5 4
2 2 1 1 1 1 1 1 1 2 2 3 3 4 4 3 3 3 3 4 5 5 5 4 5 5 4 4 4 4 4 4 5 4 5 5 5 5 5 5 5 4 4 4
2 1 1 1 2 2 2 1 2 2 2 3 3 4 4 4 4 4 4 4 4 4 4 4 4 4 4 4 4 4 4 4 4 4 5 5 5 5 5 5 4 4 4 4
Wind_Direction
262 260 215 222 214 210 217 224 231 241 247 263 277 289 294 293 291 267 235 254 257 256 256 251 248 252 249 257 260 254 248 252 257 263 266 269 274 277 277 277 279 280 281 281
248 245 241 243 231 220 225 231 240 254 260 267 276 283 284 279 269 254 255 258 261 262 264 256 257 261 264 266 268 259 255 265 271 267 271 274 278 281 280 282 286 286 284 284
238 241 252 243 225 214 215 221 225 236 248 262 271 267 267 266 257 255 258 261 261 262 260 258 263 264 264 276 287 272 271 282 283 274 276 278 279 281 283 287 290 289 287 289
206 194 229 241 214 208 215 225 224 238 257 268 273 282 280 267 261 265 272 271 268 269 270 270 269 269 285 301 295 296 296 293 292 286 283 286 286 286 289 290 289 288 291 293
199 219 252 266 224 191 205 230 225 235 252 275 307 297 273 294 297 287 284 282 279 272 267 269 272 281 335 334 324 313 304 301 301 295 291 289 288 288 291 292 291 290 293 293
203 219 230 264 83 204 188 230 215 231 249 259 258 259 278 331 317 313 313 313 305 296 288 280 285 323 17 332 321 317 317 310 300 295 291 290 291 294 295 294 293 296 294 293
214 228 246 351 21 171 204 241 0 237 246 240 247 266 301 322 331 334 331 334 331 331 322 308 307 311 309 309 305 316 324 323 312 300 297 295 299 304 308 309 307 304 301 299
205 218 237 116 147 191 309 341 318 298 274 260 295 309 313 326 340 346 350 355 359 8 360 351 352 356 304 306 314 326 331 328 323 320 317 310 308 310 311 310 308 308 309 309
209 229 333 180 211 286 319 311 316 313 300 292 295 300 320 330 338 346 355 359 5 15 11 8 6 360 325 321 327 334 338 331 328 328 326 320 313 311 312 312 309 311 313 314
243 261 276 266 292 310 311 307 311 312 307 296 285 293 312 327 335 343 350 357 3 13 13 3 359 358 347 332 325 327 328 329 329 329 330 328 324 318 315 313 313 314 314 312
250 275 289 275 287 303 309 315 321 330 326 295 230 280 306 318 324 331 340 345 353 358 351 345 350 353 355 346 335 326 328 330 324 326 326 324 323 318 309 305 309 310 310 312
248 255 264 278 290 295 296 300 301 326 340 336 253 263 302 311 320 328 338 346 352 354 351 345 347 352 352 350 337 326 325 325 321 326 324 319 319 322 321 306 315 314 311 309
272 286 282 283 288 298 292 300 314 338 346 359 1 3 339 331 337 352 353 350 349 345 344 342 346 350 347 344 337 325 316 317 321 325 321 321 321 320 321 323 319 316 317 318
292 296 281 288 294 311 325 359 42 52 47 51 44 34 26 21 12 9 359 350 347 345 344 344 347 347 343 338 334 325 320 322 322 319 319 317 318 317 318 321 323 324 326 328
320 312 291 301 317 344 21 68 82 64 47 39 40 36 31 25 11 358 352 351 357 358 353 352 351 346 346 341 342 341 333 333 328 321 319 316 315 315 316 316 316 320 324 330
324 334 330 342 343 7 49 76 87 62 40 27 22 18 13 15 4 356 356 357 359 354 349 352 347 342 343 344 344 341 337 333 324 318 318 318 318 317 318 318 321 324 327 328
311 306 313 322 325 341 31 61 81 68 30 13 359 356 4 18 14 5 3 1 1 358 354 353 343 340 344 347 342 333 328 327 325 317 317 317 315 313 312 313 316 319 321 324
305 282 272 260 259 268 43 42 47 38 355 334 346 11 27 28 13 358 355 0 8 10 4 353 344 342 346 347 341 332 327 324 322 318 314 311 310 308 308 309 312 313 315 321
353 348 339 328 301 133 107 69 37 1 358 12 30 34 26 15 0 351 353 5 6 357 346 344 345 347 344 341 335 324 319 316 315 314 310 309 309 309 308 307 310 313 316 320
13 19 41 52 56 70 78 73 69 55 36 48 71 55 34 11 357 352 359 2 347 331 324 330 336 338 334 332 331 321 314 310 311 313 313 311 310 311 311 311 312 313 316 318
19 33 45 54 53 48 54 60 66 56 31 50 72 54 17 354 349 345 353 349 339 339 335 334 335 330 327 325 322 320 317 315 315 314 314 313 313 312 312 312 313 314 313 313
14 28 37 46 53 46 37 39 53 56 46 42 45 40 17 354 348 348 341 319 319 328 331 327 326 329 333 328 326 327 325 323 321 318 314 310 307 307 310 312 312 313 311 311
13 22 30 37 48 52 41 36 40 47 42 31 19 2 345 326 323 321 324 323 324 326 329 325 330 336 337 336 332 330 329 325 319 315 312 309 307 306 307 309 309 309 309 311
17 22 25 32 55 62 46 25 22 27 25 10 359 343 329 320 323 318 304 312 325 326 326 329 336 339 340 339 334 331 326 320 315 312 310 308 309 307 306 305 306 307 309 311
16 21 31 41 49 43 30 18 18 20 18 12 360 350 339 324 305 307 311 315 324 328 325 331 339 341 341 334 332 327 321 315 312 310 308 310 310 310 308 306 307 309 311 311
10 9 7 4 4 2 360 4 7 0 359 355 350 348 345 337 324 315 313 317 320 325 327 325 329 334 333 330 326 320 315 313 315 315 312 310 308 308 307 307 308 309 309 309
18 19 19 22 17 7 359 355 353 344 340 337 332 332 334 333 331 332 330 327 327 328 326 325 325 326 326 322 319 317 314 313 312 312 313 312 311 309 309 307 308 309 310 310
Height
1436 1435 1436 1436 1438 1441 1440 1432 1429 1422 1423 1420 1423 1426 1427 1427 1428 1428 1428 1428 1427 1428 1428 1428 1428 1428 1428 1428 1428 1427 1426 1425 1424 1423 1423 1421 1420 1419 1417 1415 1413 1411 1409 1407
1438 1437 1435 1434 1432 1433 1433 1431 1428 1426 1424 1422 1424 1426 1426 1426 1426 1426 1426 1426 1426 1425 1425 1425 1425 1425 1425 1425 1424 1423 1422 1421 1420 1419 1418 1417 1416 1414 1413 1411 1409 1407 1405 1403
1431 1435 1434 1427 1422 1424 1425 1423 1424 1422 1419 1422 1424 1424 1424 1424 1424 1424 1424 1423 1423 1423 1423 1423 1423 1422 1422 1421 1421 1420 1419 1418 1417 1416 1414 1413 1412 1410 1408 1407 1405 1403 1401 1399
1432 1435 1430 1414 1417 1417 1419 1420 1422 1421 1421 1422 1422 1422 1422 1422 1422 1422 1422 1421 1421 1421 1421 1421 1420 1420 1419 1419 1418 1417 1416 1415 1414 1412 1411 1409 1408 1406 1404 1403 1401 1398 1396 1394
1429 1423 1414 1415 1418 1419 1419 1419 1420 1420 1419 1421 1421 1421 1420 1420 1420 1420 1419 1419 1418 1418 1418 1418 1417 1417 1416 1416 1415 1414 1413 1412 1411 1409 1408 1406 1404 1402 1401 1399 1397 1395 1392 1390
1426 1420 1414 1412 1417 1418 1420 1417 1418 1418 1418 1419 1420 1418 1417 1418 1417 1417 1417 1416 1415 1415 1415 1415 1414 1414 1413 1413 1412 1411 1410 1409 1408 1406 1404 1403 1401 1399 1397 1395 1393 1390 1388 1385
1423 1418 1411 1416 1418 1418 1418 1413 1416 1416 1416 1417 1418 1418 1418 1416 1416 1415 1414 1413 1413 1412 1412 1412 1411 1411 1411 1410 1410 1409 1407 1406 1404 1403 1401 1400 1398 1396 1394 1391 1389 1386 1384 1381
1420 1417 1415 1418 1418 1417 1415 1415 1415 1414 1414 1415 1415 1415 1415 1414 1414 1413 1412 1411 1410 1410 1409 1409 1409 1409 1408 1408 1407 1406 1404 1403 1401 1400 1398 1396 1395 1393 1391 1388 1386 1383 1380 1377
1416 1415 1415 1416 1416 1416 1416 1415 1414 1413 1413 1413 1413 1413 1413 1413 1412 1411 1410 1409 1409 1408 1408 1408 1407 1407 1406 1405 1404 1403 1401 1400 1398 1397 1395 1394 1392 1390 1388 1385 1383 1380 1377 1374
1417 1414 1415 1415 1415 1415 1415 1414 1413 1412 1412 1412 1411 1411 1411 1411 1410 1410 1409 1408 1407 1407 1406 1406 1406 1405 1404 1403 1402 1401 1399 1397 1396 1394 1392 1391 1389 1387 1385 1383 1380 1378 1375 1372
1415 1414 1414 1413 1413 1413 1412 1412 1411 1411 1411 1410 1410 1410 1409 1409 1409 1408 1408 1407 1406 1405 1404 1404 1404 1403 1402 1401 1400 1398 1397 1395 1394 1392 1390 1388 1386 1385 1383 1381 1379 1376 1372 1370
1410 1411 1412 1411 1411 1411 1410 1410 1410 1409 1409 1409 1409 1408 1408 1408 1408 1407 1406 1406 1405 1404 1403 1402 1401 1401 1400 1399 1398 1396 1394 1393 1391 1389 1388 1386 1384 1382 1380 1379 1376 1373 1370 1368
1410 1409 1409 1409 1409 1409 1409 1408 1408 1408 1408 1407 1407 1407 1407 1406 1406 1406 1405 1404 1403 1402 1401 1400 1399 1398 1398 1397 1396 1394 1392 1391 1389 1387 1386 1384 1382 1380 1377 1375 1373 1370 1368 1365
1409 1408 1408 1407 1407 1407 1407 1407 1406 1406 1406 1406 1406 1406 1406 1405 1405 1404 1404 1403 1402 1401 1400 1399 1397 1396 1396 1395 1393 1392 1390 1389 1387 1386 1384 1382 1380 1378 1375 1372 1369 1366 1365 1363
1407 1407 1407 1406 1405 1405 1405 1405 1405 1405 1405 1405 1405 1405 1405 1404 1404 1403 1403 1402 1400 1399 1398 1397 1396 1395 1394 1392 1391 1389 1388 1387 1385 1384 1382 1380 1378 1376 1374 1371 1368 1365 1362 1360
1406 1405 1405 1404 1404 1404 1404 1404 1404 1404 1404 1404 1404 1404 1404 1403 1403 1402 1401 1400 1399 1398 1397 1395 1394 1393 1392 1390 1389 1387 1386 1385 1384 1382 1380 1379 1377 1374 1372 1369 1367 1364 1362 1359
1405 1404 1403 1403 1402 1402 1402 1403 1403 1403 1403 1403 1403 1403 1403 1402 1402 1401 1400 1399 1398 1397 1395 1394 1393 1392 1390 1389 1387 1386 1384 1383 1382 1380 1379 1377 1375 1373 1371 1368 1366 1363 1361 1359
1404 1403 1402 1401 1401 1401 1401 1402 1402 1402 1402 1402 1402 1402 1402 1401 1400 1399 1399 1398 1397 1395 1394 1393 1392 1390 1389 1388 1386 1385 1383 1382 1380 1379 1377 1375 1373 1371 1369 1367 1364 1362 1360 1358
1402 1401 1400 1400 1400 1400 1400 1400 1401 1401 1401 1401 1401 1401 1400 1400 1399 1398 1398 1396 1395 1394 1393 1392 1391 1389 1388 1387 1385 1383 1382 1380 1378 1377 1375 1373 1372 1370 1367 1365 1363 1361 1359 1357
1400 1400 1399 1399 1399 1399 1399 1399 1400 1400 1400 1400 1400 1400 1399 1399 1398 1398 1397 1395 1394 1393 1392 1391 1389 1388 1387 1385 1384 1382 1380 1379 1377 1375 1373 1372 1370 1368 1366 1364 1362 1360 1357 1356
1400 1400 1399 1399 1398 1398 1399 1399 1399 1398 1399 1399 1399 1398 1398 1398 1397 1396 1395 1394 1393 1392 1391 1389 1388 1387 1385 1384 1382 1380 1379 1377 1375 1373 1371 1370 1368 1366 1364 1362 1360 1358 1356 1354
1401 1400 1399 1399 1398 1398 1398 1398 1398 1398 1398 1398 1397 1397 1397 1396 1396 1395 1394 1393 1392 1391 1389 1388 1386 1385 1384 1382 1380 1379 1377 1375 1373 1371 1369 1368 1366 1364 1362 1360 1358 1356 1354 1353
1401 1400 1399 1399 1398 1398 1398 1398 1398 1398 1397 1397 1397 1396 1396 1395 1395 1394 1392 1392 1391 1389 1388 1386 1385 1383 1382 1380 1378 1377 1375 1373 1371 1369 1367 1366 1364 1362 1360 1358 1356 1354 1353 1351
1401 1401 1400 1399 1399 1398 1398 1398 1398 1397 1397 1397 1396 1396 1395 1394 1393 1392 1391 1390 1389 1388 1386 1384 1383 1381 1380 1378 1376 1374 1373 1371 1369 1367 1365 1363 1361 1359 1358 1356 1354 1352 1351 1349
1402 1401 1400 1399 1399 1398 1398 1398 1397 1397 1396 1396 1395 1395 1394 1393 1392 1390 1389 1388 1387 1385 1384 1382 1381 1379 1378 1376 1374 1372 1371 1369 1367 1365 1363 1361 1359 1357 1355 1354 1352 1350 1349 1348
1402 1401 1400 1400 1399 1399 1398 1398 1397 1396 1395 1395 1394 1393 1392 1391 1390 1389 1387 1386 1385 1383 1382 1380 1378 1377 1375 1374 1372 1370 1369 1367 1365 1363 1361 1359 1357 1355 1353 1352 1350 1349 1347 1346
1401 1401 1400 1400 1399 1399 1398 1397 1396 1396 1395 1394 1393 1392 1391 1390 1388 1387 1386 1384 1383 1381 1379 1378 1376 1375 1373 1372 1370 1368 1366 1365 1363 1361 1359 1357 1355 1353 1352 1350 1349 1347 1346 1345